Regional Weather Roundup
Issued by NWS

Home | Current Version | Previous Version | Text Only | Print | Product List | Glossary Off
Versions: 1 2 3 4 5 6 7 8 9 10 11 12 13 14 15 16 17 18 19 20 21 22 23 24 25 26 27 28 29 30 31 32 33 34 35 36 37 38 39 40 41 42 43 44 45 46 47 48 49 50

000
ASUS43 KLMK 301310
RWRKY
KENTUCKY REGIONAL WEATHER ROUNDUP
NATIONAL WEATHER SERVICE LOUISVILLE KY
900 AM EDT TUE JUN 30 2015

NOTE "FAIR" INDICATES FEW OR NO CLOUDS BELOW 12,000 FEET
WITH NO SIGNIFICANT WEATHER AND/OR OBSTRUCTIONS TO VISIBILITY.

KYZ001>023-026-027-061>063-070>075-301400-
WESTERN AND SOUTH CENTRAL KENTUCKY

CITY           SKY/WX    TMP DP  RH WIND       PRES   REMARKS
PADUCAH        SUNNY     73  68  84 CALM      29.90S
HENDERSON      SUNNY     70  64  83 S3        29.87F
OWENSBORO      MOSUNNY   72  68  87 SW5       29.89S
HOPKINSVILLE   MOSUNNY   71  69  93 VRB2      29.91S
BOWLING GREEN  MOSUNNY   72  67  84 CALM      29.92S
GLASGOW        PTSUNNY   70  70 100 NW3       29.94R
$$

KYZ024-025-028>034-038-045-046-053-301400-
NORTH CENTRAL KENTUCKY

CITY           SKY/WX    TMP DP  RH WIND       PRES   REMARKS
LOUISVILLE/SDF CLOUDY    73  65  75 S5        29.89S
LOUISVILLE/LOU SUNNY     71  65  81 S6        29.90S
FORT KNOX      MOSUNNY   69  66  93 S3        29.89F
$$

KYZ035>037-039>044-047>052-055>060-089>105-301400-
NORTHEAST KENTUCKY

CITY           SKY/WX    TMP DP  RH WIND       PRES   REMARKS
LEXINGTON      MOSUNNY   69  66  90 S9        29.92F
COVINGTON      MOSUNNY   68  65  90 S6        29.89R
FRANKFORT      MOSUNNY   70  66  87 SW6       29.90F
$$

KYZ054-064>069-076>088-106>120-301400-
SOUTHEAST KENTUCKY

CITY           SKY/WX    TMP DP  RH WIND       PRES   REMARKS
JACKSON        SUNNY     69  64  84 CALM      29.96F
LONDON         MOSUNNY   70  62  76 SW3       29.97R
SOMERSET       MOSUNNY   66  66 100 CALM      29.97R
MIDDLESBORO    MOSUNNY   68  64  86 S5        30.00R
MONTICELLO     SUNNY     71  70  97 CALM      29.98R
$$




USA.gov is the U.S. government's official web portal to all federal, state and local government web resources and services.